Theta_e
334 331 327 318 309 311 307 311 318 312 311 316 317 317 321 323 319 312 325 338 358 362 364 364 369 368 366 365 364 363 363 362 362 363 362 362 364 365 364 364 365 367 366 365 361 359 359 358 356
327 326 319 314 307 304 308 313 311 312 314 317 317 316 317 315 319 318 321 338 356 365 363 363 368 368 367 365 364 363 363 363 363 363 362 362 364 365 364 364 366 366 365 362 360 359 358 358 356
325 325 314 310 307 304 307 311 311 313 315 315 314 318 318 322 320 320 324 341 353 365 364 366 368 368 367 365 364 363 363 363 363 363 363 362 364 365 363 364 365 366 364 362 359 359 359 358 358
322 318 315 306 304 309 309 311 312 313 316 316 315 313 323 324 321 322 325 329 346 359 366 364 366 367 367 365 364 363 363 363 363 363 362 362 364 364 363 364 365 365 364 363 360 359 359 358 358
319 316 308 305 305 309 311 313 313 310 312 313 314 312 315 324 324 324 324 325 345 364 366 365 366 367 368 366 365 364 364 363 362 362 362 362 364 363 364 364 365 365 365 363 360 359 359 358 358
312 313 305 303 307 309 312 313 313 312 313 313 313 311 315 322 321 321 322 324 326 361 366 365 366 366 366 366 365 363 363 362 361 361 361 362 363 363 364 365 365 365 364 362 360 359 359 358 358
311 310 306 306 307 308 311 314 311 310 311 311 314 309 315 318 319 320 322 324 326 350 365 364 364 366 366 366 364 363 362 361 360 360 360 361 362 363 363 364 365 365 363 362 360 359 358 357 357
313 311 305 307 306 306 311 312 313 311 309 314 315 309 309 315 318 319 321 322 323 333 363 364 365 363 362 362 365 363 362 361 360 360 361 362 362 363 363 363 364 364 363 361 360 359 358 357 355
315 305 303 305 307 308 311 308 311 312 309 311 312 312 314 316 317 317 318 319 321 324 341 362 361 361 361 358 362 363 363 362 360 361 361 359 358 360 361 361 363 364 363 361 359 358 357 355 354
308 304 306 309 309 307 307 306 307 306 307 308 310 313 313 314 314 314 314 315 317 320 324 333 361 362 359 355 360 362 362 361 359 358 359 356 353 355 354 358 363 364 362 360 359 357 356 353 343
310 304 307 308 307 307 306 306 309 306 304 308 307 309 311 312 313 313 313 315 315 319 322 325 342 370 364 355 357 361 360 360 359 357 357 354 350 353 353 353 358 360 361 356 355 354 350 343 340
303 307 306 307 307 306 305 307 305 307 307 310 310 310 311 311 312 312 313 314 314 317 322 324 329 333 348 362 356 356 356 358 359 358 358 356 354 351 351 351 354 356 356 352 351 348 347 345 343
305 307 307 308 307 307 307 305 305 306 310 311 311 311 311 312 313 315 315 315 317 317 321 321 329 338 337 346 355 356 353 353 357 359 359 359 354 354 354 349 353 354 354 351 349 346 346 345 345
307 307 306 307 306 307 305 305 306 307 311 310 311 311 312 312 312 314 317 317 320 323 322 324 327 334 336 334 346 353 354 352 352 354 356 359 357 353 351 350 350 352 351 350 348 347 348 346 349
306 301 304 305 306 305 306 301 303 309 310 310 310 312 311 312 313 314 317 320 321 321 328 327 325 332 335 337 338 346 353 354 350 348 353 356 355 352 351 348 349 351 349 350 347 350 353 352 351
302 303 298 306 306 306 304 297 305 310 309 309 310 310 310 313 315 318 319 322 325 326 329 330 329 330 333 335 337 335 344 353 353 348 349 353 352 354 353 349 347 350 352 349 347 348 347 349 346
302 298 300 302 307 305 303 300 306 310 310 309 310 309 310 313 315 318 318 320 323 325 329 329 332 330 333 336 336 336 337 345 350 352 348 351 352 351 352 349 349 352 350 348 350 350 350 346 347
298 299 301 299 304 305 302 302 306 309 310 309 309 308 311 311 312 315 317 319 321 324 329 331 330 332 335 333 336 335 334 336 353 351 352 349 351 350 350 349 349 350 348 349 349 350 350 346 343
300 298 297 301 305 303 302 302 305 308 309 308 308 309 310 311 314 316 317 319 320 323 325 328 328 332 332 331 330 330 330 330 347 352 351 351 352 351 348 350 348 348 345 347 349 348 348 343 343
299 297 298 302 305 303 302 301 305 308 309 309 307 309 310 311 312 314 315 318 319 321 324 325 326 331 330 327 329 330 330 333 334 348 351 352 351 350 348 349 345 348 344 348 347 346 344 340 343
299 298 299 299 302 303 301 300 304 308 309 308 310 311 312 311 310 312 314 317 318 319 320 320 327 325 328 330 326 329 332 333 333 333 345 350 350 350 347 348 345 347 344 344 347 347 342 335 339
296 302 301 299 297 293 304 293 301 304 304 306 308 310 311 310 311 313 314 315 316 317 318 320 324 326 322 327 324 325 324 321 325 330 340 344 347 349 346 346 345 346 343 342 348 347 343 339 334
299 302 300 299 297 297 299 296 300 305 302 304 308 309 310 310 311 311 312 314 314 315 315 317 324 323 322 321 324 322 321 322 321 323 331 340 337 342 346 347 345 346 343 345 345 345 342 345 336
303 299 300 301 299 293 298 297 298 301 303 306 308 308 309 310 311 312 313 314 313 312 313 314 317 319 322 320 321 323 321 320 317 319 324 339 336 346 349 349 345 349 345 345 345 346 345 341 344
301 298 294 293 293 292 302 297 300 305 307 308 306 307 308 310 311 310 310 308 310 310 310 310 312 314 317 316 320 321 322 321 317 318 323 338 338 336 343 347 348 346 349 346 346 346 344 343 341
300 300 294 287 289 293 299 294 299 308 310 309 308 309 310 310 311 309 309 308 307 308 310 309 309 311 314 315 316 321 323 320 318 319 322 335 337 338 339 345 349 348 351 348 347 346 345 344 343
300 295 302 296 296 290 294 300 306 308 306 307 308 309 309 309 310 309 309 308 308 309 309 308 309 310 312 314 315 318 319 322 319 319 322 333 341 338 337 341 348 350 350 349 345 345 346 344 349
300 303 295 296 287 287 293 295 296 303 305 307 306 307 308 310 309 309 308 308 308 308 308 309 308 308 310 312 314 316 317 321 323 321 322 331 337 339 339 337 343 349 349 348 345 347 347 347 345
297 296 297 298 295 288 287 292 306 303 304 304 306 308 308 309 308 308 307 307 307 306 305 306 307 307 308 309 311 313 316 318 324 325 323 329 331 338 334 327 341 348 348 349 347 345 347 347 345
303 301 300 295 291 294 292 292 305 306 306 307 307 308 309 309 308 308 306 306 305 304 304 303 304 304 307 308 309 310 313 317 319 326 326 327 327 339 336 330 343 347 348 348 347 344 348 347 346
Wind_Speed
15 14 11 9 6 8 14 16 19 20 16 12 13 14 21 18 16 8 13 11 12 18 15 16 14 12 15 14 14 13 11 12 15 14 13 11 10 11 12 13 14 15 13 11 10 10 10 10 10
12 17 7 6 9 12 3 19 20 15 12 9 9 11 14 20 15 12 11 13 13 17 13 14 13 11 13 14 14 14 13 12 12 14 13 12 12 10 11 11 12 13 13 12 10 10 10 10 9
13 16 8 6 11 14 8 17 15 9 13 12 10 9 8 6 17 8 11 13 11 9 16 17 14 11 11 14 13 13 14 13 13 13 14 13 12 10 11 11 11 11 12 12 10 9 9 9 7
8 6 7 7 15 6 16 14 8 9 11 11 11 8 13 9 12 12 14 13 10 7 17 17 21 13 10 12 14 14 14 14 14 14 13 12 13 12 10 12 11 11 11 11 9 9 8 8 6
8 8 11 12 15 9 16 10 5 5 8 10 9 12 6 16 15 14 14 14 7 14 16 16 17 18 12 11 13 14 15 15 15 14 14 13 12 11 11 11 11 11 10 11 10 8 8 8 5
9 6 10 12 13 11 14 10 7 9 8 9 7 8 6 21 19 15 13 12 12 15 16 14 15 15 14 12 12 14 14 14 15 15 15 14 12 11 10 11 11 11 10 10 10 8 7 7 5
11 10 14 18 8 19 14 5 8 6 5 10 8 8 6 18 18 15 13 12 10 8 17 12 12 12 13 12 11 12 14 15 14 14 15 15 14 13 11 9 10 10 10 10 10 8 7 7 5
7 9 15 14 9 12 7 3 7 6 8 6 8 4 10 17 17 15 14 13 12 6 19 14 11 12 11 11 10 10 12 15 16 15 15 15 14 14 13 10 10 10 10 10 10 9 8 7 7
8 7 11 8 16 14 13 8 7 6 6 4 2 5 13 12 15 13 11 12 10 6 7 13 10 12 11 11 12 11 12 12 15 15 15 12 9 11 14 13 13 11 10 9 9 9 8 7 7
8 8 8 8 10 10 8 7 6 4 7 7 4 9 9 9 11 11 11 11 14 15 13 8 6 7 9 9 11 11 10 9 9 10 11 9 10 10 12 13 14 14 12 10 9 9 9 8 6
4 10 8 7 9 6 7 7 7 8 7 7 7 7 9 10 10 9 9 10 11 14 12 15 7 3 6 4 4 7 6 7 7 11 10 10 9 8 9 7 8 8 11 7 8 7 7 10 9
8 5 3 6 3 4 6 7 10 8 6 4 3 5 7 8 7 9 11 10 11 10 11 14 11 9 12 6 2 5 9 9 8 11 12 9 7 9 9 7 10 9 8 10 10 7 9 10 12
10 7 2 7 6 7 5 10 11 10 8 1 3 6 8 8 8 7 7 10 10 10 10 11 10 7 5 8 8 6 6 10 12 12 13 11 10 9 9 10 10 11 10 10 10 10 10 11 11
9 8 10 10 9 6 9 12 11 11 3 2 5 8 8 8 8 8 8 10 9 9 10 10 9 7 6 6 10 7 9 9 11 12 14 17 11 10 10 10 10 11 11 11 10 10 9 9 5
7 12 13 15 12 5 6 14 13 11 2 7 8 7 7 6 8 11 11 11 11 8 7 10 11 7 7 7 6 7 9 13 10 12 16 19 15 13 11 11 10 8 11 13 12 9 6 5 5
13 14 13 10 10 6 3 13 11 4 7 10 9 6 4 7 6 8 9 8 8 8 9 11 12 13 10 9 8 8 9 9 16 9 11 19 19 15 11 10 11 10 9 10 11 8 7 6 6
14 10 14 9 12 5 10 12 14 15 10 9 9 6 3 3 5 7 7 7 9 10 9 9 10 13 13 11 10 11 14 11 11 13 10 15 20 20 13 12 12 10 8 10 6 6 7 6 4
9 8 12 9 9 8 15 19 17 13 12 12 8 3 2 5 7 8 9 9 9 10 7 7 7 9 11 11 9 10 11 12 8 12 12 16 16 20 16 13 11 11 9 7 7 6 4 7 7
9 11 14 12 13 16 15 18 18 17 16 12 9 6 3 4 5 7 8 8 8 8 10 8 8 9 7 9 10 10 11 12 9 9 19 20 16 19 18 12 12 12 12 10 10 7 8 7 7
9 13 14 15 14 9 16 21 21 18 13 12 9 7 6 5 6 8 9 9 8 7 8 11 10 9 7 9 9 10 12 14 13 9 14 24 18 21 19 16 16 14 13 10 13 13 6 7 7
12 14 15 14 14 18 23 22 23 22 9 9 9 9 6 5 7 9 10 11 11 9 8 10 8 9 11 9 10 11 11 12 13 12 13 16 21 24 22 21 15 12 14 12 11 13 14 10 6
15 9 7 11 14 14 11 15 18 9 15 13 16 15 10 2 6 10 12 13 13 13 11 10 8 6 11 12 11 14 11 13 13 14 15 16 17 24 23 21 19 14 13 14 12 13 12 11 10
10 10 11 15 17 18 21 13 14 15 17 17 20 12 4 2 8 13 14 13 14 14 16 13 7 5 9 13 16 11 14 11 11 14 21 15 11 16 22 20 22 15 14 13 17 16 15 10 10
8 11 18 21 17 15 21 16 11 5 11 10 10 6 2 6 11 13 15 15 14 14 14 17 13 10 8 13 17 13 15 13 13 15 15 13 11 13 18 21 21 15 16 13 15 16 16 13 8
13 9 6 6 11 13 10 6 12 7 11 9 8 3 3 7 11 15 17 17 15 15 14 14 18 17 12 14 16 16 14 13 15 16 14 16 10 10 16 16 17 16 15 14 15 14 16 14 11
11 10 6 5 5 11 18 7 3 12 13 13 5 2 7 10 13 16 17 14 16 15 14 13 16 20 18 14 18 14 15 8 9 14 13 13 13 12 24 22 15 19 16 15 14 13 12 12 9
8 8 2 7 9 12 11 11 9 14 10 7 5 3 10 12 11 16 15 13 14 14 13 12 16 18 21 16 16 15 15 9 11 15 13 11 17 15 18 22 29 20 19 17 14 12 12 13 10
9 5 4 4 6 7 7 9 6 11 5 4 4 9 10 11 12 15 14 12 12 14 14 16 18 20 21 21 17 15 14 15 10 11 14 12 11 13 18 16 26 25 23 21 17 13 15 16 13
10 11 8 6 7 5 6 4 6 10 8 3 9 12 13 12 14 15 13 14 15 16 16 16 17 20 19 19 20 20 16 16 11 9 11 9 13 16 16 8 34 23 21 21 18 16 20 18 16
16 15 15 7 8 9 11 14 6 2 1 7 11 7 6 9 12 14 15 14 16 15 16 15 15 17 18 18 19 20 19 17 15 9 9 11 7 12 13 16 19 28 24 22 20 20 19 17 17
Wind_Direction
288 259 239 262 249 229 255 261 76 58 58 25 40 22 74 53 45 70 25 7 9 128 126 124 123 137 141 143 142 140 142 139 138 138 141 142 139 131 131 130 129 127 128 127 125 120 115 110 109
293 291 239 275 249 254 339 50 66 58 62 38 55 359 54 63 65 63 13 345 32 126 136 125 120 140 148 147 149 146 147 145 144 143 146 151 150 142 137 133 130 130 131 133 132 129 125 119 122
265 263 265 224 234 262 42 59 44 45 59 28 22 337 46 21 58 29 349 351 57 111 140 130 128 137 154 152 151 152 151 151 150 150 153 158 157 152 147 139 134 139 139 136 140 138 132 131 130
254 207 243 259 261 234 65 65 24 33 72 30 15 73 92 69 70 29 360 352 8 60 130 138 136 140 156 162 157 157 158 157 156 157 159 167 164 156 156 147 143 149 148 144 149 144 138 138 145
232 265 254 245 243 98 83 53 46 25 41 16 5 25 8 105 70 28 4 338 50 86 125 149 145 145 155 168 165 165 164 163 160 162 164 171 170 163 159 155 150 154 154 149 152 151 146 144 159
260 253 262 249 213 107 92 47 52 40 26 359 46 350 315 64 37 10 352 327 327 119 136 144 143 146 150 166 175 170 169 169 166 166 169 172 169 168 165 161 159 158 158 153 153 158 154 148 163
262 281 277 297 307 77 82 51 49 24 321 31 0 313 250 21 14 358 331 326 319 121 137 139 149 153 151 160 176 182 175 170 172 169 169 173 171 168 167 170 167 165 158 156 156 162 161 159 174
301 291 276 276 277 101 96 70 72 16 7 321 274 337 342 13 354 346 341 326 314 8 122 141 148 163 171 171 177 188 190 176 172 173 173 172 175 172 170 169 176 170 164 161 160 167 173 174 184
270 261 250 360 356 75 59 31 18 15 288 332 287 20 20 6 350 344 343 328 327 341 114 142 154 157 171 188 174 185 194 192 178 176 173 165 189 185 182 192 176 175 169 168 167 169 178 183 199
250 247 21 40 20 15 23 24 331 345 319 280 38 10 358 2 336 341 343 349 344 346 358 46 139 156 170 200 167 180 198 196 200 192 182 189 197 186 200 194 180 171 171 172 176 176 180 197 209
243 259 37 61 38 359 346 309 15 291 288 4 347 325 338 339 326 338 345 357 346 341 350 360 7 157 179 176 179 175 188 193 200 206 187 201 197 203 196 186 173 177 176 185 185 186 201 207 227
270 228 333 324 50 299 291 346 279 280 302 346 342 301 310 304 329 331 335 347 338 344 348 358 0 43 359 309 181 211 187 185 192 203 200 192 215 209 180 193 182 187 181 199 184 193 204 222 225
246 265 210 253 261 271 316 277 295 286 283 67 292 295 300 304 325 335 338 323 330 351 357 337 337 35 7 348 296 266 279 194 195 192 201 198 206 210 189 202 184 186 187 195 191 204 198 214 226
347 309 288 281 267 278 274 292 293 271 222 261 301 304 307 337 327 336 354 0 358 352 342 336 329 352 346 6 327 286 263 291 198 200 198 201 201 218 202 194 209 183 195 187 206 202 190 209 173
283 277 266 242 223 244 3 283 250 226 71 301 282 306 324 310 13 9 8 1 355 342 350 358 327 340 347 331 327 319 274 268 269 206 194 192 203 208 220 194 212 197 189 190 197 202 191 173 200
257 253 263 236 166 189 137 273 303 131 289 284 292 314 292 31 1 20 358 337 323 330 355 350 336 326 326 318 307 307 294 252 264 261 214 186 194 205 215 199 208 208 186 204 184 201 177 165 191
217 267 220 175 190 200 207 259 294 282 282 277 287 277 359 343 2 24 341 329 340 329 339 343 336 324 323 308 298 294 286 272 246 253 253 200 190 199 217 211 200 197 210 192 193 180 165 167 193
344 245 283 290 285 229 242 255 262 281 275 271 255 243 295 333 354 351 346 354 333 321 323 318 312 303 309 308 295 280 279 268 238 240 253 238 192 200 202 204 205 191 205 191 178 172 184 173 194
318 291 278 280 277 269 276 281 272 276 265 248 222 206 244 291 322 327 337 334 327 324 312 302 294 290 298 291 298 295 287 282 270 238 243 267 200 200 198 203 208 194 204 190 173 193 181 197 173
295 279 277 271 266 275 271 273 279 267 253 234 198 209 231 274 308 334 324 320 314 307 315 305 297 292 305 302 300 303 294 290 286 270 244 241 236 195 202 201 205 194 194 188 181 188 181 182 172
247 257 264 289 318 292 268 263 264 234 198 177 195 221 221 264 316 311 325 325 313 313 303 296 292 307 296 291 294 284 294 307 278 261 262 251 252 209 193 197 204 195 196 187 186 188 178 183 192
266 252 310 283 284 277 322 290 292 193 189 202 208 209 214 327 305 307 328 333 330 319 309 284 282 295 303 308 297 293 293 289 289 297 286 244 240 258 188 193 199 187 203 194 192 184 184 171 193
268 317 300 281 276 277 268 265 260 252 185 202 224 182 110 287 305 329 330 329 320 321 323 314 306 302 295 293 290 284 283 283 295 288 281 246 238 257 189 188 196 198 196 199 185 187 188 174 182
270 284 274 254 247 251 258 237 273 179 201 156 102 121 99 345 328 310 340 331 325 325 324 327 316 303 301 298 280 275 278 288 286 281 289 241 236 213 189 220 190 203 196 201 184 190 186 187 188
226 253 285 285 211 235 249 271 259 289 181 122 105 102 6 321 305 345 329 331 331 336 336 320 318 312 300 290 284 282 277 270 281 285 285 254 212 200 228 238 196 198 195 198 186 185 187 191 190
205 240 239 260 265 318 323 257 262 78 84 95 113 172 244 339 341 332 321 334 325 328 318 308 310 308 301 292 289 285 279 259 279 281 275 284 220 213 205 243 212 193 194 191 182 186 186 189 201
222 221 273 320 295 260 241 267 118 117 124 164 209 356 337 325 332 324 321 335 334 331 324 315 306 303 304 304 293 287 292 262 271 280 284 287 241 216 209 207 211 200 198 199 184 186 181 187 200
234 11 209 195 252 261 267 307 307 146 176 89 345 317 338 316 336 324 330 346 332 336 328 327 321 311 309 311 301 295 300 294 269 282 285 283 262 236 217 220 227 197 194 190 182 180 189 186 192
184 228 224 250 262 267 303 271 115 1 353 19 310 317 318 345 334 326 337 337 334 333 330 323 316 312 309 305 308 308 304 302 290 280 290 288 322 222 219 262 226 196 189 184 180 191 186 184 188
237 221 210 207 233 227 265 276 322 7 12 282 271 281 349 346 328 329 331 345 337 327 328 317 307 306 306 309 309 307 306 305 306 290 299 292 289 252 190 209 244 197 179 183 185 190 182 182 186